Location: Boiro
(42.6475°N, 8.8834°W)
Time: 07:44:30
(UTC+01:00)

SR - Pass Details

Date: 30 November 2021
Orbit: 583 x 872 km, 66.7° (Epoch: 16 January)

Event Time Altitude Azimuth Distance (km) Brightness Sun altitude
Rises 02:10:23 0° 216° (SW) 3,022 - -66.9°
Reaches altitude 10° 02:12:47 10° 220° (SW) 2,067 - -66.7°
Maximum altitude 02:17:23 66° 302° (WNW) 686 - -66.2°
Drops below altitude 10° 02:21:44 10° 25° (NNE) 1,950 - -65.8°
Sets 02:23:56 0° 29° (NNE) 2,835 - -65.6°
